Theta_e
323 323 324 324 326 327 328 329 330 331 331 331 332 331 331 332 332 331 330 331 332 332 332 332 332 333 333 334 334 333 334 334 334 334 333 331 332 334 335 334 333 333
323 323 323 323 324 324 325 327 329 330 330 330 331 331 331 331 331 330 330 330 331 331 332 332 332 332 333 333 333 333 333 333 334 334 333 333 332 332 334 335 334 334
322 322 322 322 322 322 323 325 325 326 327 328 329 330 330 331 331 330 330 330 330 330 331 332 332 332 333 333 333 333 334 333 334 334 334 334 333 332 333 334 334 334
321 321 321 321 321 321 321 321 322 323 324 325 326 328 329 329 330 330 329 330 330 330 330 330 331 332 332 332 331 331 332 332 332 333 332 333 333 332 333 333 333 334
319 319 320 319 319 320 320 319 319 320 321 322 324 325 326 327 329 330 329 329 329 330 330 330 330 331 331 332 330 330 329 329 330 330 330 331 332 333 333 333 333 333
319 319 319 318 318 318 318 318 318 318 319 320 322 323 324 325 328 329 329 329 329 330 330 330 330 330 331 331 331 329 329 329 330 330 329 331 332 332 332 333 333 333
317 318 317 316 317 316 317 317 317 317 318 319 319 320 321 323 325 326 328 329 330 329 329 329 329 330 330 329 330 329 329 329 328 329 330 332 333 331 331 332 332 333
316 316 315 315 315 315 315 315 316 316 316 317 317 318 319 320 322 324 325 327 328 329 329 329 329 329 328 328 329 329 330 328 328 330 331 331 332 331 330 330 331 332
315 314 314 314 314 313 314 314 314 314 314 315 315 315 317 318 319 321 322 323 326 327 328 329 328 328 328 328 329 330 330 329 329 331 332 331 331 331 330 330 331 331
313 313 313 313 312 312 312 313 312 312 312 313 313 313 313 315 317 319 319 320 322 324 326 327 326 325 326 327 328 330 331 330 329 329 330 329 329 330 330 331 331 331
313 312 312 312 311 311 311 311 311 311 311 311 311 311 311 311 313 315 315 316 317 320 322 321 320 321 321 322 323 325 327 329 328 328 328 328 327 327 329 331 332 332
312 312 312 312 311 311 310 310 310 310 310 309 309 309 309 308 309 311 311 312 314 316 317 317 316 316 317 318 319 322 324 326 327 328 328 328 327 326 328 331 332 332
312 311 311 311 311 310 310 310 309 309 309 308 308 308 307 307 307 308 308 309 311 313 314 313 312 313 314 315 317 319 321 324 326 327 327 327 327 327 329 331 332 332
311 311 310 310 310 310 309 308 308 308 307 307 307 306 306 306 305 305 305 306 307 309 310 309 309 309 310 311 313 316 319 321 323 326 327 327 327 327 329 330 332 332
310 310 309 309 309 308 308 308 307 307 306 306 305 305 305 304 304 304 304 304 304 304 305 306 306 305 306 307 309 313 316 319 320 323 326 327 327 327 327 329 331 331
309 309 308 308 308 307 307 307 307 306 305 305 305 304 304 303 302 302 302 302 302 302 302 303 302 302 304 306 308 310 313 316 319 321 323 325 326 326 328 330 332 330
308 308 308 307 307 307 307 306 306 306 305 304 304 303 303 302 301 301 301 301 301 301 301 301 300 301 303 306 308 309 311 313 317 320 322 323 325 326 327 329 331 330
307 307 307 307 306 306 306 306 306 306 305 304 304 303 303 302 301 301 300 300 300 300 300 300 299 300 303 306 308 310 311 313 315 318 320 322 324 325 326 327 329 330
306 306 306 306 306 306 305 305 305 305 305 304 303 303 303 302 301 301 300 300 300 300 300 300 299 300 302 305 308 310 313 314 315 316 319 321 323 323 325 327 328 329
304 304 304 304 304 305 304 304 304 305 305 304 303 303 302 302 301 301 300 300 299 299 299 299 298 299 301 305 307 310 313 315 316 317 318 320 321 322 324 326 327 327
302 302 302 302 302 303 303 304 304 304 304 303 303 302 302 302 301 301 300 299 299 299 298 298 298 298 301 303 306 309 313 315 317 318 319 319 320 323 324 325 326 326
302 302 301 301 301 302 302 302 303 303 303 303 302 302 301 301 301 300 299 299 299 298 298 298 298 299 300 302 304 307 311 313 314 316 318 318 319 321 323 324 326 327
303 301 300 299 300 300 301 301 301 302 302 302 301 301 301 301 300 300 299 299 298 298 298 297 297 298 299 301 302 304 308 310 311 311 313 314 314 315 317 319 322 325
302 300 298 298 298 299 299 300 300 300 300 299 300 300 301 300 300 300 299 299 298 298 297 297 297 298 299 299 301 302 304 306 307 308 309 310 311 311 313 314 316 320
301 300 298 298 298 298 298 298 299 299 298 298 298 299 299 300 299 299 299 299 298 298 297 297 297 298 299 299 299 301 302 302 304 304 304 305 306 307 309 311 312 315
301 300 299 298 298 298 298 297 298 298 297 297 297 297 298 299 299 298 298 298 298 298 297 297 297 297 298 299 299 300 300 301 302 301 301 301 302 303 305 307 310 312
Wind_Speed
16 16 18 19 19 20 20 20 20 19 18 16 15 15 14 13 12 12 13 13 12 12 12 12 14 15 17 18 20 23 24 24 23 23 25 26 27 27 27 27 27 28
16 17 18 19 20 21 20 20 20 20 19 17 15 15 14 13 14 13 13 13 12 12 13 14 15 15 17 19 20 22 24 24 23 24 24 24 25 28 29 27 26 26
17 17 18 19 19 21 21 20 21 21 20 19 18 17 16 14 15 15 14 14 14 13 13 15 17 17 18 21 22 23 24 25 24 24 23 23 24 27 29 28 26 25
19 18 18 19 18 20 20 21 21 21 21 22 21 20 19 17 16 16 16 15 15 14 13 15 16 17 18 19 20 22 24 25 24 22 21 21 23 25 27 26 26 26
20 19 19 20 20 20 20 21 21 21 22 22 22 21 21 20 19 18 18 17 16 15 15 15 17 17 17 18 19 20 22 22 21 21 20 21 21 23 25 24 24 25
22 22 21 22 22 21 21 22 22 22 22 23 23 22 22 21 21 20 20 20 18 18 17 17 17 15 16 19 20 19 19 20 19 19 20 21 21 22 25 23 23 24
25 25 24 25 24 24 23 22 23 23 23 23 23 23 23 23 22 21 21 21 20 20 20 19 17 15 15 18 21 21 19 17 18 18 19 20 21 22 24 24 24 25
27 27 27 27 26 26 24 23 24 24 23 23 23 23 23 23 23 22 23 23 21 21 22 21 18 16 16 17 18 20 19 17 17 17 18 19 21 21 23 24 25 26
28 28 28 28 28 27 25 24 24 24 24 23 23 24 23 23 23 22 23 24 23 22 22 22 21 20 19 17 17 17 18 18 17 17 17 20 22 23 23 23 24 26
30 29 29 29 29 28 26 25 25 24 24 24 23 24 24 24 24 22 23 24 24 25 25 23 23 23 20 18 17 16 17 17 16 16 19 21 24 24 23 23 24 25
30 30 30 29 29 28 27 25 25 25 25 24 24 24 25 26 26 24 24 25 23 25 26 25 24 23 20 19 18 16 16 17 17 17 19 22 24 24 22 23 25 26
31 30 29 28 28 28 27 26 26 26 26 26 25 24 25 28 29 27 27 26 24 23 23 24 26 26 24 23 21 18 16 16 17 18 18 20 23 22 21 23 25 26
30 30 29 27 27 27 27 27 27 27 27 27 27 25 25 28 30 30 30 29 26 23 22 24 28 30 29 27 24 20 17 15 15 16 18 19 20 20 22 25 25 24
27 27 28 27 27 27 27 27 27 28 28 28 28 27 26 26 27 28 31 32 30 27 23 23 30 34 33 31 28 23 19 17 14 14 17 19 20 21 24 26 26 25
25 26 27 27 27 27 27 27 27 27 28 28 29 29 28 28 27 26 28 31 33 32 26 25 32 37 36 32 29 25 22 20 17 14 15 16 17 20 23 24 25 26
25 26 26 27 27 27 27 28 27 26 27 28 29 29 29 30 30 28 27 27 30 31 29 28 33 38 37 31 28 25 23 21 19 15 14 13 13 17 20 21 22 25
25 25 26 26 27 27 26 27 27 26 27 28 29 29 29 30 32 32 30 27 27 27 28 30 34 39 38 33 28 26 24 22 19 16 15 14 14 15 17 18 20 23
25 25 26 26 26 27 26 26 26 26 27 29 29 29 29 30 32 32 32 31 29 26 27 30 36 41 40 36 31 28 24 22 19 16 14 15 15 16 17 18 20 22
25 24 25 25 25 25 26 26 27 26 27 28 29 28 28 30 31 31 32 33 33 30 28 29 35 43 42 37 34 30 25 22 19 16 13 13 14 15 16 17 18 19
26 26 26 26 26 26 26 26 27 26 26 28 29 28 28 29 30 31 32 33 33 33 31 29 35 43 43 39 36 32 26 21 17 15 12 11 11 11 13 15 15 15
26 27 28 29 28 28 27 27 27 26 26 27 28 29 28 28 28 30 32 32 33 34 33 32 37 43 45 42 39 34 28 22 18 14 11 9 9 8 11 13 13 13
25 26 28 29 28 28 29 29 27 26 26 27 27 27 28 27 28 30 31 32 33 34 35 35 38 44 45 44 42 37 30 26 24 19 12 9 8 4 4 7 9 11
27 28 29 30 30 30 30 30 29 28 28 28 27 26 27 27 27 29 31 32 33 34 35 35 38 43 45 44 43 40 34 30 28 24 19 16 14 10 5 1 4 9
29 31 33 33 32 32 31 31 31 30 29 29 28 26 26 26 27 28 30 32 33 33 34 35 38 42 43 44 43 42 38 34 29 26 24 22 19 16 13 9 4 2
27 29 33 33 32 32 31 31 30 29 29 29 29 27 26 25 26 27 28 30 33 34 34 35 38 41 43 43 42 41 40 37 32 28 26 25 23 22 20 18 14 7
24 26 31 32 31 30 30 30 29 28 29 29 29 28 27 25 25 26 28 29 31 34 35 35 37 40 42 42 41 40 39 38 37 33 29 27 27 27 27 26 23 17
Wind_Direction
21 16 12 13 14 9 3 1 1 360 356 347 340 338 334 325 311 310 316 307 294 288 284 279 274 270 267 264 265 264 257 251 251 253 248 243 238 232 228 224 220 219
25 20 14 12 11 6 4 5 6 5 3 358 351 344 341 339 335 332 328 317 306 294 287 286 280 270 265 263 263 261 256 250 247 247 247 246 243 238 233 228 223 222
27 25 20 17 12 6 5 6 6 6 5 3 2 357 351 347 345 346 341 332 325 313 298 290 284 277 271 268 266 261 257 253 247 246 249 250 247 241 236 230 226 224
32 30 27 22 17 13 10 7 4 3 2 1 3 3 358 354 353 355 353 344 334 324 312 299 291 288 283 278 272 264 259 256 250 247 250 251 248 244 241 235 230 227
31 29 32 29 23 19 16 12 8 4 3 1 2 2 359 357 355 354 353 351 343 332 323 314 307 301 293 284 277 268 261 259 256 251 249 248 246 245 245 240 234 229
29 29 34 33 29 25 19 15 12 9 6 3 3 1 360 359 356 350 346 345 345 341 332 322 314 308 299 293 291 284 269 261 258 253 245 242 242 241 242 240 236 232
35 36 36 33 31 27 22 17 14 11 8 4 2 2 2 4 1 357 351 344 340 340 337 330 320 312 307 300 298 296 286 273 265 256 247 242 237 236 238 239 237 234
39 38 35 33 31 27 22 19 16 13 9 6 3 2 4 7 5 5 5 0 351 341 338 337 332 323 319 312 306 302 296 288 275 263 253 244 238 235 236 237 236 235
40 37 35 34 32 27 23 20 17 13 11 8 5 4 6 8 7 7 8 10 10 1 349 343 340 334 328 321 315 305 293 286 275 262 252 242 239 239 237 234 231 231
39 36 36 34 31 28 24 21 18 15 13 11 7 7 8 9 10 10 9 10 13 12 6 359 353 349 344 334 325 310 294 286 276 266 259 250 243 241 236 232 230 230
39 36 35 33 31 29 26 23 21 18 17 15 11 10 11 14 16 14 13 13 11 11 13 12 9 5 2 355 345 330 310 295 282 273 271 265 254 245 237 233 233 234
39 36 34 33 32 30 28 25 23 22 21 19 16 14 13 17 20 20 20 18 15 17 14 8 8 8 6 3 357 346 330 311 290 276 269 264 258 253 245 238 236 236
38 35 34 34 33 31 29 27 25 24 24 22 20 19 17 16 19 21 24 22 19 22 16 2 3 7 4 1 358 351 341 327 302 281 268 259 253 252 247 240 238 239
37 36 35 34 33 32 30 28 26 25 26 25 24 23 20 16 15 16 21 23 22 23 20 6 5 8 5 359 355 349 343 335 320 297 280 265 251 244 242 240 240 241
38 38 37 36 35 33 31 29 28 27 28 27 26 26 23 20 18 15 17 20 20 21 21 12 9 10 7 2 356 348 341 336 331 316 295 278 261 251 245 240 241 244
39 38 37 36 35 35 33 31 29 29 30 29 28 27 26 24 23 21 18 16 15 17 17 13 10 8 6 4 1 353 342 335 332 323 304 288 274 264 254 242 239 245
39 38 36 36 34 33 32 31 29 30 32 31 29 27 26 26 25 25 23 18 14 13 12 11 8 6 5 5 2 358 348 336 330 324 312 297 282 272 267 253 240 241
39 38 36 36 35 32 31 29 28 31 32 31 30 28 26 26 26 26 24 21 18 14 11 10 6 4 6 6 2 359 352 340 328 319 314 305 290 277 269 260 248 238
38 35 33 33 33 32 32 30 29 31 32 31 29 27 26 26 25 24 23 21 20 17 14 11 7 6 8 7 4 1 355 345 335 322 310 301 294 282 268 261 253 241
40 38 36 34 33 32 30 29 30 32 31 30 29 27 25 25 24 23 21 20 19 17 16 14 10 9 11 10 7 4 359 353 347 336 316 298 299 291 272 262 255 246
47 47 43 40 37 34 29 27 29 34 33 31 30 29 27 26 24 22 20 19 19 18 18 16 13 12 14 14 10 7 7 9 6 352 324 307 314 298 267 258 250 244
47 48 43 39 38 35 31 27 27 32 33 31 30 30 30 28 26 23 21 20 19 19 18 18 16 16 17 17 14 11 13 20 21 12 357 349 357 350 258 243 235 233
48 48 44 40 39 37 34 31 30 31 31 29 27 27 28 29 27 24 23 22 20 20 19 18 18 19 20 20 19 16 16 21 25 24 24 26 28 28 24 343 220 222
55 53 48 45 42 39 38 36 35 34 32 30 28 26 26 27 27 25 24 23 22 21 20 19 19 21 22 23 23 21 20 21 22 24 27 28 28 27 27 29 31 211
61 56 50 49 47 43 42 40 39 37 34 31 31 29 29 28 28 25 23 23 23 23 23 22 21 22 24 25 25 26 26 24 24 26 25 23 22 23 25 30 34 36
63 59 54 52 50 48 46 43 41 38 35 32 30 30 30 30 29 27 24 23 23 23 24 24 22 22 25 27 27 28 30 30 30 30 26 23 24 24 24 26 29 31